Date String (YYYY-MM-DD hh:mm:ss) UTC,Instrument flags,absolute air pressure of the measurement (hPa),sample flow rate (lpm),inlet stack bypass flow (lpm),air temperature of the measurement (°C),ambient temperature measured by the external sensor (°C),aerosol sample conditioner tube jacket temperature (°C),OPC LED temperature (°C),internal box temperature (°C),relative humidity of the measurement (%),span deviation,mass concentration of particles derived from Lorenz-Mie calculation of OPC scattering (μg/m³),mass concentration of particles derived from Lorenz-Mie calculation of OPC scattering (μg/m³),mass concentration of particles derived from Lorenz-Mie calculation of OPC scattering (μg/m³)
DateTimeUTC,F1_M11,P_M11,Q1_M11,Q2_M11,T1_M11,T2_M11,T3_M11,T4_M11,T5_M11,U1_M11,ZSPAN_M11,X2_M11,X0_M11,X1_M11
2024-05-25 04:00:00,SystemResetWarning,0824.4,5.00,000.00,031.2,030.3,000.0,039.5,032.8,011.0,0000.0,0003.73,0010.34,0002.21
2024-05-25 04:01:00,SystemResetWarning,0824.3,5.00,000.00,031.2,030.3,000.0,039.5,032.8,011.0,0000.0,0003.72,0010.14,0002.21
2024-05-25 04:02:00,SystemResetWarning,0824.3,5.00,000.00,031.2,030.3,000.0,039.5,032.8,010.9,0000.0,0003.72,0010.43,0002.18
2024-05-25 04:03:00,SystemResetWarning,0824.3,5.00,000.00,031.2,030.3,000.0,039.5,032.8,010.9,0000.0,0003.68,0010.78,0002.17
2024-05-25 04:04:00,SystemResetWarning,0824.3,5.00,000.00,031.2,030.3,000.0,039.5,032.8,010.9,0000.0,0003.69,0010.55,0002.17
2024-05-25 04:05:00,SystemResetWarning,0824.3,5.00,000.00,031.2,030.3,000.0,039.5,032.7,010.9,0000.0,0003.70,0010.37,0002.17
2024-05-25 04:06:00,SystemResetWarning,0824.3,5.00,000.00,031.2,030.3,000.0,039.5,032.8,010.9,0000.0,0003.70,0010.38,0002.16
2024-05-25 04:07:00,SystemResetWarning,0824.3,5.00,000.00,031.2,030.3,000.0,039.5,032.8,010.9,0000.0,0003.67,0010.28,0002.16
2024-05-25 04:08:00,SystemResetWarning,0824.3,5.01,000.00,031.2,030.3,000.0,039.5,032.8,010.9,0000.0,0003.66,0010.10,0002.16
2024-05-25 04:09:00,SystemResetWarning,0824.2,5.01,000.00,031.2,030.3,000.0,039.6,032.8,011.0,0000.0,0003.68,0009.88,0002.17
2024-05-25 04:10:00,SystemResetWarning,0824.3,5.00,000.00,031.2,030.3,000.0,039.5,032.8,010.9,0000.0,0003.71,0009.70,0002.20
2024-05-25 04:11:00,SystemResetWarning,0824.3,5.00,000.00,031.2,030.3,000.0,039.5,032.8,010.9,0000.0,0003.67,0010.21,0002.22
2024-05-25 04:12:00,SystemResetWarning,0824.3,5.00,000.00,031.2,030.3,000.0,039.5,032.8,010.9,0000.0,0003.73,0010.95,0002.23
2024-05-25 04:13:00,SystemResetWarning,0824.3,5.00,000.00,031.2,030.3,000.0,039.5,032.8,010.9,0000.0,0003.75,0011.25,0002.25
2024-05-25 04:14:00,SystemResetWarning,0824.3,5.00,000.00,031.2,030.3,000.0,039.6,032.8,011.0,0000.0,0003.75,0010.81,0002.26
2024-05-25 04:15:00,SystemResetWarning,0824.3,5.00,000.00,031.2,030.3,000.0,039.6,032.8,011.0,0000.0,0003.77,0010.67,0002.27
2024-05-25 04:16:00,SystemResetWarning,0824.4,5.00,000.00,031.2,030.3,000.0,039.6,032.8,011.0,0000.0,0003.81,0011.04,0002.28
2024-05-25 04:17:00,SystemResetWarning,0824.4,5.00,000.00,031.2,030.3,000.0,039.6,032.8,011.0,0000.0,0003.81,0011.30,0002.30
2024-05-25 04:18:00,SystemResetWarning,0824.4,5.00,000.00,031.2,030.3,000.0,039.6,032.8,011.0,0000.0,0003.86,0011.54,0002.30
2024-05-25 04:19:00,SystemResetWarning,0824.4,5.00,000.00,031.1,030.3,000.0,039.6,032.8,011.0,0000.0,0003.87,0011.62,0002.30
2024-05-25 04:20:00,SystemResetWarning,0824.4,5.00,000.00,031.1,030.3,000.0,039.6,032.8,011.0,0000.0,0003.87,0011.67,0002.29
2024-05-25 04:21:00,SystemResetWarning,0824.4,5.00,000.00,031.1,030.3,000.0,039.6,032.7,011.0,0000.0,0003.82,0011.52,0002.27
2024-05-25 04:22:00,SystemResetWarning,0824.4,5.00,000.00,031.1,030.2,000.0,039.6,032.7,010.9,0000.0,0003.84,0011.28,0002.26
2024-05-25 04:23:00,SystemResetWarning,0824.4,5.00,000.00,031.1,030.2,000.0,039.6,032.7,011.0,0000.0,0003.82,0011.10,0002.25
2024-05-25 04:24:00,SystemResetWarning,0824.4,5.00,000.00,031.1,030.2,000.0,039.5,032.7,011.0,0000.0,0003.84,0011.68,0002.26
2024-05-25 04:25:00,SystemResetWarning,0824.4,5.00,000.00,031.1,030.2,000.0,039.6,032.7,011.0,0000.0,0003.80,0012.64,0002.25
2024-05-25 04:26:00,SystemResetWarning,0824.3,5.00,000.00,031.1,030.2,000.0,039.6,032.7,011.1,0000.0,0003.79,0012.77,0002.24
2024-05-25 04:27:00,SystemResetWarning,0824.4,5.00,000.00,031.1,030.2,000.0,039.6,032.7,011.1,0000.0,0003.72,0012.34,0002.25
2024-05-25 04:28:00,SystemResetWarning,0824.4,5.01,000.00,031.1,030.2,000.0,039.5,032.7,011.1,0000.0,0003.70,0011.93,0002.25
2024-05-25 04:29:00,SystemResetWarning,0824.4,5.02,000.00,031.1,030.2,000.0,039.5,032.7,011.2,0000.0,0003.77,0012.90,0002.24
2024-05-25 04:30:00,SystemResetWarning,0824.5,4.99,000.00,031.1,030.2,000.0,039.5,032.7,011.2,0000.0,0003.84,0013.74,0002.25
2024-05-25 04:31:00,SystemResetWarning,0824.5,4.99,000.00,031.0,030.1,000.0,039.5,032.6,011.2,0000.0,0003.83,0014.20,0002.25
2024-05-25 04:32:00,SystemResetWarning,0824.5,4.99,000.00,031.0,030.1,000.0,039.5,032.7,011.2,0000.0,0003.84,0014.36,0002.25
2024-05-25 04:33:00,SystemResetWarning,0824.5,5.01,000.00,031.0,030.1,000.0,039.5,032.7,011.3,0000.0,0003.85,0014.54,0002.24
2024-05-25 04:34:00,SystemResetWarning,0824.5,5.01,000.00,031.0,030.1,000.0,039.5,032.6,011.4,0000.0,0003.89,0014.94,0002.26
2024-05-25 04:35:00,SystemResetWarning,0824.5,4.99,000.00,031.0,030.1,000.0,039.5,032.6,011.3,0000.0,0003.89,0014.04,0002.28
2024-05-25 04:36:00,SystemResetWarning,0824.5,4.99,000.00,031.0,030.1,000.0,039.5,032.6,011.3,0000.0,0003.94,0014.32,0002.29
2024-05-25 04:37:00,SystemResetWarning,0824.5,5.02,000.00,031.0,030.1,000.0,039.5,032.6,011.3,0000.0,0003.98,0014.70,0002.30
2024-05-25 04:38:00,SystemResetWarning,0824.5,5.00,000.00,031.0,030.1,000.0,039.5,032.6,011.3,0000.0,0004.02,0014.82,0002.28
2024-05-25 04:39:00,SystemResetWarning,0824.4,4.98,000.00,031.0,030.1,000.0,039.5,032.6,011.5,0000.0,0004.05,0016.17,0002.29
2024-05-25 04:40:00,SystemResetWarning,0824.4,5.00,000.00,031.0,030.1,000.0,039.5,032.6,011.5,0000.0,0004.02,0016.11,0002.29
2024-05-25 04:41:00,SystemResetWarning,0824.4,5.01,000.00,031.0,030.1,000.0,039.5,032.6,011.6,0000.0,0003.99,0016.09,0002.29
2024-05-25 04:42:00,SystemResetWarning,0824.4,5.00,000.00,031.0,030.1,000.0,039.4,032.6,011.6,0000.0,0003.99,0015.80,0002.29
2024-05-25 04:43:00,SystemResetWarning,0824.5,4.99,000.00,031.0,030.1,000.0,039.4,032.6,011.5,0000.0,0004.04,0016.02,0002.30
2024-05-25 04:44:00,SystemResetWarning,0824.5,4.99,000.00,031.0,030.1,000.0,039.4,032.6,011.7,0000.0,0004.05,0016.74,0002.33
2024-05-25 04:45:00,SystemResetWarning,0824.5,5.00,000.00,031.0,030.1,000.0,039.5,032.6,011.7,0000.0,0004.00,0017.28,0002.32
2024-05-25 04:46:00,SystemResetWarning,0824.6,5.01,000.00,031.0,030.1,000.0,039.4,032.6,011.6,0000.0,0003.97,0016.90,0002.30
2024-05-25 04:47:00,SystemResetWarning,0824.5,5.01,000.00,030.9,030.0,000.0,039.4,032.6,011.4,0000.0,0003.95,0016.30,0002.31
2024-05-25 04:48:00,SystemResetWarning,0824.5,4.99,000.00,030.9,030.0,000.0,039.4,032.6,011.3,0000.0,0003.91,0015.73,0002.31
2024-05-25 04:49:00,SystemResetWarning,0824.4,4.99,000.00,030.9,030.0,000.0,039.4,032.5,011.3,0000.0,0003.89,0015.65,0002.31
2024-05-25 04:50:00,SystemResetWarning,0824.4,5.01,000.00,030.9,030.0,000.0,039.4,032.5,011.4,0000.0,0003.90,0014.70,0002.33
2024-05-25 04:51:00,SystemResetWarning,0824.3,5.01,000.00,030.9,030.0,000.0,039.4,032.5,011.5,0000.0,0003.88,0013.68,0002.35
2024-05-25 04:52:00,SystemResetWarning,0824.2,5.00,000.00,030.9,029.9,000.0,039.4,032.5,011.4,0000.0,0003.85,0013.01,0002.36
2024-05-25 04:53:00,SystemResetWarning,0824.1,4.99,000.00,030.9,029.9,000.0,039.4,032.5,011.3,0000.0,0003.91,0014.54,0002.38
2024-05-25 04:54:00,SystemResetWarning,0824.1,5.02,000.00,030.9,030.0,000.0,039.4,032.5,011.3,0000.0,0003.92,0014.67,0002.39
2024-05-25 04:55:00,SystemResetWarning,0824.1,5.00,000.00,030.9,030.0,000.0,039.4,032.5,011.3,0000.0,0003.91,0013.77,0002.38
2024-05-25 04:56:00,SystemResetWarning,0824.2,4.99,000.00,030.9,030.0,000.0,039.4,032.5,011.3,0000.0,0003.94,0013.31,0002.37
2024-05-25 04:57:00,SystemResetWarning,0824.2,4.99,000.00,030.9,030.0,000.0,039.3,032.5,011.4,0000.0,0003.95,0013.16,0002.38
2024-05-25 04:58:00,SystemResetWarning,0824.2,5.01,000.00,030.9,030.0,000.0,039.3,032.5,011.5,0000.0,0003.97,0012.53,0002.40
2024-05-25 04:59:00,SystemResetWarning,0824.2,5.01,000.00,030.9,030.0,000.0,039.3,032.5,011.3,0000.0,0003.96,0012.55,0002.40
